[[{"header":{"parameterUnit":"m.s-1","parameterCategory":1,"la1":30.2991,"la2":30.254,"lo1":-89.0895,"lo2":-89.0444,"dy":0.0017,"dx":0.0017,"nx":28,"ny":28,"refTime":"2023-07-23T21:00:00:Z","depth":0,"parameterNumber":2,"parameterNumberName":"U-component_of_WINDS"},"data":[0,0,0,0,0,0,0,0,0,0,0,0,0,0,0,0,0,0,0,0,0,0,0,0,0,0,0,0,0,0,0,0,0,0,0,0,0,0,0,0,0,0,0,0,0,0,0,0,0,0,0,0,0,0,0,0,0,0,0.6637,0.6638,0,0.6721,0.6722,0.6723,0.6732,0.6731,0.673,0.6729,0.6817,0.682,0.6823,0,0,0,0,0,0,0,0,0,0,0,0,0,0.6488,0.649,0.6637,0.6638,0.6639,0.6721,0.6722,0.6723,0.6732,0.6731,0.673,0.6729,0.6816,0.6819,0.6823,0,0,0,0,0,0,0,0,0,0,0,0,0,0.656,0.6491,0.6637,0.6653,0.6656,0.6721,0.6722,0.6724,0.6732,0.6731,0.673,0.6728,0.6814,0.6819,0.6824,0.6879,0,0,0.6838,0.684,0,0,0,0,0,0,0,0,0.6556,0.6566,0.665,0.6652,0.6655,0.6715,0.6701,0.6776,0.6732,0.6703,0.6729,0.6728,0.6784,0.6791,0.681,0.6883,0.6886,0.6838,0.6841,0.6843,0.6845,0,0,0,0,0,0,0,0.6551,0.6562,0.6671,0.6651,0.6654,0.6658,0.6666,0.6716,0.675,0.6706,0.6706,0.6716,0.6785,0.6805,0.6812,0.6888,0.6838,0.6842,0.6845,0.6847,0.7012,0.7014,0,0,0,0,0,0,0.6543,0.6558,0.6668,0.6673,0.6601,0.6661,0.6671,0.6697,0.6749,0.6756,0.6717,0.6716,0.6798,0.6806,0.6815,0.6884,0.6843,0.6848,0.685,0.7011,0.7013,0.7014,0,0,0,0,0,0,0.6539,0.6552,0.6664,0.6616,0.663,0.6665,0.6694,0.6699,0.6719,0.6758,0.6764,0.6731,0.6797,0.6808,0.6863,0.6887,0.685,0.6854,0.7009,0.7011,0.7014,0.7021,0,0,0,0,0,0,0.6535,0.6551,0.6571,0.6616,0.6633,0.671,0.6695,0.6702,0.6727,0.6727,0.6773,0.6779,0.6797,0.6856,0.6868,0.6893,0.6858,0.7007,0.701,0.7013,0.7019,0.7023,0.7027,0,0,0,0,0,0.653,0.657,0.6572,0.6586,0.6659,0.6712,0.6721,0.674,0.6729,0.675,0.6776,0.6778,0.6882,0.6861,0.6875,0.6901,0.7006,0.7009,0.7013,0.7017,0.7022,0.7027,0,0,0,0,0,0,0.6527,0.6576,0.6579,0.6635,0.6669,0.6713,0.674,0.6745,0.6783,0.6781,0.6804,0.6814,0.6869,0.6891,0.6866,0.6959,0.6943,0.6949,0.6942,0.6947,0.6952,0.6945,0.6862,0,0,0,0,0,0.6533,0.6571,0.6612,0.6658,0.6675,0.6705,0.6728,0.674,0.6776,0.6791,0.682,0.6856,0.6897,0.6924,0.6963,0.7023,0.7033,0.7048,0.7052,0.7055,0.706,0.7095,0.7102,0.7026,0.7026,0.7026,0,0,0.6546,0.6577,0.66,0.6658,0.6686,0.6726,0.6717,0.6759,0.6789,0.6797,0.6851,0.6874,0.6916,0.6973,0.7,0.6993,0.7084,0.706,0.7062,0.7065,0.7099,0.7106,0.7112,0.7028,0.7028,0.7028,0,0,0.6589,0.6617,0.6658,0.6686,0.6729,0.6749,0.6759,0.6802,0.6818,0.6872,0.688,0.6917,0.6987,0.7016,0.7041,0.7098,0.7102,0.7111,0.7132,0.7166,0.7172,0.7177,0.7198,0.7205,0.7116,0.7116,0.7116,0,0.66,0.6659,0.6679,0.6721,0.6747,0.6757,0.68,0.6827,0.688,0.6899,0.689,0.698,0.7008,0.7074,0.7088,0.7107,0.712,0.7105,0.7169,0.7175,0.718,0.7201,0.7208,0.7117,0.7116,0.7116,0.7116,0,0.667,0.6712,0.6741,0.6792,0.6821,0.6864,0.6891,0.6919,0.6929,0.695,0.7006,0.7041,0.7089,0.7106,0.7116,0.7173,0.7168,0.7164,0.7149,0.7188,0.7207,0.7215,0.7118,0.7117,0.7117,0.7117,0,0,0.6713,0.6776,0.6786,0.681,0.6859,0.6891,0.6936,0.6982,0.7006,0.7043,0.7081,0.7141,0.7139,0.7166,0.718,0.721,0.7254,0.7203,0.7204,0.7211,0.7321,0.7323,0.7332,0.7257,0.7259,0.726,0.7318,0,0.6762,0.6839,0.6859,0.6926,0.6965,0.6976,0.7015,0.705,0.7071,0.7109,0.7133,0.7176,0.7169,0.7186,0.7215,0.7242,0.7276,0.7239,0.7294,0.7295,0.7282,0.7342,0.7344,0.7396,0.7325,0.7327,0.7328,0,0.6829,0.6868,0.6938,0.6983,0.7,0.7034,0.7079,0.7115,0.7155,0.7169,0.7201,0.7213,0.726,0.7244,0.731,0.7284,0.7308,0.7325,0.7328,0.7333,0.7313,0.7349,0.7413,0.7421,0.734,0.7339,0.7338,0,0.6853,0.6923,0.6974,0.6995,0.7048,0.7072,0.7096,0.7135,0.7162,0.7203,0.7221,0.7266,0.7291,0.7327,0.7351,0.7336,0.7416,0.7401,0.743,0.7429,0.7445,0.7444,0.7514,0.7462,0.7461,0.7461,0.7461,0,0.6905,0.6948,0.6986,0.7018,0.7066,0.709,0.7138,0.7162,0.7198,0.7235,0.7248,0.7283,0.7313,0.7353,0.7373,0.7425,0.7437,0.745,0.7455,0.7449,0.7447,0.7464,0.7461,0.7463,0.7463,0.7462,0.7462,0,0.694,0.6967,0.7024,0.7071,0.7084,0.7118,0.7158,0.719,0.7213,0.7261,0.7273,0.7309,0.7357,0.7385,0.7445,0.7458,0.7517,0.752,0.7503,0.7505,0.7533,0.753,0.7616,0.7629,0.7568,0.7568,0.7569,0,0.6971,0.7004,0.7055,0.7081,0.7105,0.7146,0.7175,0.7201,0.723,0.7279,0.7306,0.7354,0.7394,0.747,0.7502,0.7549,0.7553,0.7581,0.756,0.7554,0.7554,0.7552,0.7555,0.7584,0.7584,0.7585,0.7585,0,0.7024,0.7037,0.7076,0.7122,0.7155,0.7192,0.7229,0.725,0.7282,0.7315,0.7363,0.7394,0.7456,0.7505,0.7555,0.758,0.7589,0.7591,0.7601,0.7594,0.7583,0.759,0.7513,0.7589,0.7588,0.7588,0.7588,0.7588,0.7058,0.7089,0.713,0.7174,0.7205,0.724,0.7272,0.73,0.7341,0.7393,0.7406,0.7457,0.7499,0.7567,0.7594,0.7636,0.7631,0.7644,0.7648,0.7651,0.7652,0.7577,0.7645,0.7645,0.7645,0.7645,0.7645,0,0.7112,0.7139,0.718,0.7232,0.7267,0.7272,0.7314,0.7344,0.7389,0.7427,0.7466,0.7523,0.7571,0.7608,0.7657,0.7683,0.7688,0.7695,0.7693,0.7699,0.7652,0.764,0.769,0.769,0.769,0.769,0.769,0.769,0.7144,0.7196,0.7214,0.7282,0.7309,0.736,0.7383,0.7416,0.7447,0.751,0.7549,0.7573,0.7611,0.7664,0.7708,0.7718,0.7736,0.7742,0.7752,0.7708,0.7703,0.7698,0.7686,0.7746,0.7746,0.7796,0.7796,0.7797]},{"header":{"parameterUnit":"m.s-1","parameterCategory":1,"la1":30.2991,"la2":30.254,"lo1":-89.0895,"lo2":-89.0444,"dy":0.0017,"dx":0.0017,"nx":28,"ny":28,"refTime":"2023-07-23T21:00:00:Z","depth":0,"parameterNumber":3,"parameterNumberName":"V-component_of_WINDS"},"data":[0,0,0,0,0,0,0,0,0,0,0,0,0,0,0,0,0,0,0,0,0,0,0,0,0,0,0,0,0,0,0,0,0,0,0,0,0,0,0,0,0,0,0,0,0,0,0,0,0,0,0,0,0,0,0,0,0,0,-2.5242,-2.5242,0,-2.5282,-2.5282,-2.5283,-2.5253,-2.5252,-2.525,-2.5249,-2.529,-2.5292,-2.5294,0,0,0,0,0,0,0,0,0,0,0,0,0,-2.5138,-2.514,-2.5242,-2.5242,-2.5243,-2.5282,-2.5282,-2.5283,-2.5253,-2.5252,-2.525,-2.5249,-2.5289,-2.5292,-2.5294,0,0,0,0,0,0,0,0,0,0,0,0,0,-2.5181,-2.5141,-2.5242,-2.5233,-2.5232,-2.5282,-2.5282,-2.5283,-2.5254,-2.5252,-2.525,-2.5248,-2.5288,-2.5291,-2.5295,-2.5355,0,0,-2.5305,-2.5307,0,0,0,0,0,0,0,0,-2.5179,-2.5185,-2.5234,-2.5233,-2.5233,-2.5261,-2.5261,-2.5307,-2.5254,-2.5246,-2.5249,-2.5247,-2.5281,-2.5285,-2.5297,-2.5357,-2.5358,-2.5305,-2.5308,-2.5309,-2.531,0,0,0,0,0,0,0,-2.5176,-2.5183,-2.5258,-2.5234,-2.5234,-2.5226,-2.523,-2.5269,-2.5274,-2.5246,-2.5244,-2.5249,-2.5281,-2.5294,-2.5298,-2.5359,-2.5305,-2.5308,-2.531,-2.5312,-2.5468,-2.547,0,0,0,0,0,0,-2.5174,-2.5181,-2.5256,-2.5259,-2.5201,-2.523,-2.5234,-2.5254,-2.5273,-2.5275,-2.5251,-2.5248,-2.5289,-2.5294,-2.5299,-2.5369,-2.5309,-2.5312,-2.5314,-2.5466,-2.5469,-2.5471,0,0,0,0,0,0,-2.5172,-2.5181,-2.5255,-2.5219,-2.5228,-2.5233,-2.5256,-2.5256,-2.5268,-2.5277,-2.5278,-2.5263,-2.5288,-2.5294,-2.5341,-2.537,-2.5314,-2.5317,-2.5464,-2.5467,-2.547,-2.5511,0,0,0,0,0,0,-2.5169,-2.518,-2.5204,-2.522,-2.523,-2.5297,-2.5258,-2.5258,-2.5274,-2.5271,-2.5289,-2.529,-2.5287,-2.5336,-2.5344,-2.5374,-2.532,-2.5461,-2.5465,-2.5469,-2.5507,-2.5515,-2.5522,0,0,0,0,0,-2.5165,-2.5214,-2.5205,-2.5214,-2.526,-2.5298,-2.5304,-2.5299,-2.5277,-2.53,-2.5305,-2.5289,-2.5366,-2.5341,-2.535,-2.5381,-2.5459,-2.5464,-2.5468,-2.5504,-2.5514,-2.5522,0,0,0,0,0,0,-2.5201,-2.5216,-2.5206,-2.5262,-2.5279,-2.5293,-2.5322,-2.531,-2.5334,-2.5329,-2.5322,-2.5327,-2.5375,-2.5383,-2.5355,-2.544,-2.5409,-2.5416,-2.5433,-2.5442,-2.545,-2.5446,-2.5322,0,0,0,0,0,-2.5215,-2.5246,-2.5257,-2.5305,-2.5315,-2.5317,-2.5334,-2.5329,-2.5346,-2.5353,-2.5362,-2.5379,-2.5406,-2.5425,-2.5451,-2.5509,-2.5511,-2.5534,-2.5542,-2.5548,-2.5554,-2.5583,-2.5593,-2.5486,-2.5486,-2.5486,0,0,-2.5246,-2.5258,-2.5277,-2.5313,-2.5326,-2.5357,-2.5323,-2.5358,-2.5381,-2.5358,-2.5402,-2.5409,-2.5428,-2.548,-2.5503,-2.5488,-2.5584,-2.5554,-2.5559,-2.5561,-2.5589,-2.5599,-2.5608,-2.5489,-2.5489,-2.5488,0,0,-2.5316,-2.5329,-2.5369,-2.5382,-2.5402,-2.5403,-2.5413,-2.5429,-2.5432,-2.5476,-2.546,-2.5486,-2.5535,-2.5548,-2.5561,-2.5635,-2.5621,-2.5644,-2.5683,-2.5712,-2.572,-2.5727,-2.5752,-2.5761,-2.565,-2.565,-2.565,0,-2.5351,-2.5397,-2.5392,-2.5427,-2.5442,-2.5424,-2.5464,-2.5477,-2.5504,-2.5515,-2.5497,-2.5557,-2.5568,-2.5622,-2.5639,-2.5651,-2.5661,-2.5642,-2.5719,-2.5727,-2.5734,-2.5757,-2.5767,-2.5653,-2.5652,-2.5652,-2.5652,0,-2.5438,-2.547,-2.5501,-2.5527,-2.5546,-2.5584,-2.5583,-2.5603,-2.5596,-2.5599,-2.5643,-2.5656,-2.5683,-2.5696,-2.569,-2.5748,-2.5738,-2.5721,-2.5689,-2.5746,-2.5768,-2.5777,-2.5656,-2.5655,-2.5655,-2.5654,0,0,-2.5532,-2.5554,-2.5565,-2.5576,-2.5595,-2.562,-2.5656,-2.5683,-2.57,-2.5719,-2.5748,-2.5789,-2.5772,-2.5787,-2.5782,-2.5807,-2.5863,-2.5786,-2.5787,-2.5799,-2.5926,-2.5938,-2.5949,-2.5854,-2.5856,-2.5857,-2.5924,0,-2.5602,-2.5665,-2.5661,-2.572,-2.5749,-2.5731,-2.5763,-2.5778,-2.5781,-2.5805,-2.5809,-2.5837,-2.5814,-2.5823,-2.5847,-2.5851,-2.5888,-2.5847,-2.588,-2.5881,-2.5874,-2.5961,-2.5974,-2.6037,-2.5933,-2.5934,-2.5935,0,-2.5692,-2.5714,-2.5776,-2.579,-2.5802,-2.583,-2.5853,-2.5878,-2.5894,-2.5894,-2.591,-2.5901,-2.5936,-2.5905,-2.5953,-2.5925,-2.5938,-2.5942,-2.5944,-2.5946,-2.5911,-2.5963,-2.6057,-2.6066,-2.5949,-2.5948,-2.5947,0,-2.5752,-2.5797,-2.584,-2.585,-2.5867,-2.5887,-2.5895,-2.591,-2.5926,-2.5946,-2.5956,-2.5981,-2.5994,-2.6012,-2.6009,-2.5987,-2.6058,-2.6026,-2.6058,-2.6058,-2.6073,-2.6072,-2.6168,-2.6084,-2.6084,-2.6084,-2.6084,0,-2.583,-2.5868,-2.5867,-2.5893,-2.5935,-2.5929,-2.597,-2.5976,-2.5989,-2.6015,-2.6001,-2.6026,-2.6021,-2.6045,-2.6043,-2.6082,-2.6089,-2.6089,-2.6088,-2.609,-2.6089,-2.6097,-2.6092,-2.6086,-2.6086,-2.6085,-2.6085,0,-2.5904,-2.5905,-2.5949,-2.5962,-2.5966,-2.5996,-2.6007,-2.6031,-2.6033,-2.6066,-2.6073,-2.6076,-2.6104,-2.6103,-2.6135,-2.6133,-2.6181,-2.6175,-2.6175,-2.6174,-2.6204,-2.6201,-2.6308,-2.6321,-2.623,-2.6231,-2.6232,0,-2.5953,-2.5982,-2.5997,-2.6014,-2.6023,-2.605,-2.6066,-2.6061,-2.6078,-2.6098,-2.6119,-2.6146,-2.6167,-2.6212,-2.6216,-2.624,-2.6234,-2.627,-2.6238,-2.6238,-2.6233,-2.623,-2.6232,-2.6276,-2.6277,-2.6278,-2.6279,0,-2.6039,-2.6038,-2.6061,-2.6085,-2.6104,-2.6122,-2.6139,-2.6153,-2.615,-2.617,-2.6198,-2.6214,-2.6246,-2.6272,-2.6294,-2.6302,-2.6289,-2.6289,-2.6297,-2.6298,-2.6297,-2.6296,-2.6191,-2.6286,-2.6285,-2.6285,-2.6284,-2.6284,-2.6101,-2.6125,-2.6139,-2.6166,-2.6178,-2.6193,-2.6216,-2.622,-2.6244,-2.6269,-2.6265,-2.6296,-2.631,-2.6339,-2.6349,-2.6372,-2.6359,-2.6372,-2.6375,-2.6377,-2.638,-2.6294,-2.6377,-2.6376,-2.6376,-2.6376,-2.6376,0,-2.6185,-2.6193,-2.6217,-2.6241,-2.6261,-2.6248,-2.6265,-2.6283,-2.631,-2.6325,-2.6345,-2.6377,-2.6401,-2.6408,-2.6431,-2.6449,-2.6444,-2.6455,-2.6453,-2.6455,-2.6391,-2.6381,-2.6459,-2.6459,-2.6459,-2.6459,-2.6459,-2.6459,-2.6231,-2.627,-2.6271,-2.6315,-2.6323,-2.6353,-2.6364,-2.6378,-2.6389,-2.6425,-2.6445,-2.6449,-2.646,-2.6484,-2.6505,-2.6507,-2.6515,-2.6529,-2.6527,-2.6468,-2.6459,-2.6451,-2.6441,-2.6531,-2.6531,-2.6589,-2.6589,-2.659]}]]